Location: Fenile
(46.0500°N, 9.5500°E)
Time: 16:38:22
(UTC+00:00)

Cosmos 2341 Rocket - Pass Details

Date: 03 March 2021
Orbit: 968 x 1005 km, 82.9° (Epoch: 15 April)

Event Time Altitude Azimuth Distance (km) Brightness Sun altitude
Rises 18:28:43 0° 176° (S) 3,699 6.9 -14.2°
Reaches altitude 10° 18:31:16 10° 173° (S) 2,749 6.2 -14.7°
Maximum altitude 18:37:28 64° 94° (E) 1,090 4.0 -15.7°
Drops below altitude 10° 18:43:40 10° 14° (NNE) 2,742 6.3 -16.8°
Sets 18:46:12 0° 12° (NNE) 3,689 7.0 -17.2°
